www.pogodaiklimat.ru

Погода и климат >> Архив погоды >> Россия >> Сахалинская область >> Александровск-Сахалинский


АРХИВ ПОГОДЫ в Александровске-Сахалинском

Время (UTC), дата Ветер
(напр.,м/с)
 
Видим.   Явления Облачность Т
(С)
Тd
(С)
f
(%)
Тe
(С)
Тes
(С)
Комфортность P
(гПа)
Po
(гПа)
Тmin
(С)
Tmax
(С)
R
(мм)
R24
(мм)
S
(см)
18 11.08 ЮВ 1-3
{3}
20 км 10/4 600 м
[Cb cap Ac trans]
+12.7 +12.2 97 +13 +13 по сезону 1010.3 1006.5
21 11.08 ЮВ 1-2
{4}
20 км 10/8 600 м
[Cb cap Ac trans]
+13.6 +12.9 96 +14 +14 по сезону 1009.7 1005.9 +12.5
00 12.08 З 1-2
{3}
20 км 10/10 600 м
[Cb cap]
+15.9 +13.9 88 +17 +17 по сезону 1009.8 1006.1
03 12.08 З 2-3
{4}
20 км 10/10 600 м
[Cb cap]
+16.5 +14.6 89 +17 +17 по сезону 1008.3 1004.6
06 12.08 СЗ 2-4
{5}
20 км 10/5 600 м
[Cb cap Ac trans Ci sp]
+16.7 +14.9 89 +17 +19 по сезону 1007.6 1003.9
09 12.08 СЗ 2-3
{4}
20 км 10/10 600 м
[Cb cap]
+15.4 +14.2 93 +15 +15 по сезону 1008.2 1004.5 +17.5
12 12.08 ЮВ 1-1
{3}
20 км 10/10 600 м
[Cb cap]
+14.7 +14.6 99 +15 +15 по сезону 1008.9 1005.2
15 12.08 В 2-3
{3}
20 км 5/3 600 м
[Sc Ci sp]
+11.6 +11.4 99 +10 +10 прохладно 1009.3 1005.5
18 12.08 В 2-3
{3}
20 км 3/0
[Ci sp]
+9.9 +9.8 99 +8 +8 холодно 1009.7 1005.9
21 12.08 ЮВ 3-4
{5}
20 км 1/1 600 м
[Sc]
+11.9 +11.7 99 +10 +11 холодно 1010.3 1006.5 +9.8
00 13.08 Ю 5-8
{8}
20 км 1/1 600 м
[Sc]
+17.4 +14.5 83 +17 +22 по сезону 1010.6 1006.9
03 13.08 ЮЗ 5-8
{8}
20 км ясно +18.8 +13.9 73 +19 +27 по сезону 1010.6 1006.9
06 13.08 ЮЗ 6-9
{12}
20 км 3/0
[Ci sp]
+19.4 +12.4 64 +20 +23 тепло 1009.8 1006.1
09 13.08 Ю 3-7
{10}
20 км 4/0
[Ac trans Ci sp]
+17.9 +12.0 68 +18 +18 по сезону 1010.0 1006.3 +20.2
12 13.08 ЮВ 2-2
{8}
20 км 4/3 600 м
[Cb cap Ci sp]
+13.6 +13.4 99 +13 +13 по сезону 1011.3 1007.5
15 13.08 ЮВ 3-4
{4}
20 км ясно +14.0 +11.0 82 +13 +13 по сезону 1010.7 1007.0
18 13.08 В 3-3
{4}
20 км 4/0
[Ci sp]
+12.7 +10.7 88 +11 +11 прохладно 1010.8 1007.0
21 13.08 ЮВ 1-2
{3}
20 км 3/0
[Ci fib]
+13.8 +11.2 84 +14 +16 по сезону 1011.2 1007.4 +11.1
00 14.08 ЮЗ 4-6
{6}
20 км 10/0
[Ci sp]
+20.1 +12.7 62 +22 +27 комфорт 1011.2 1007.5
03 14.08 ЮЗ 6-9
{10}
20 км 10/0
[Ci sp]
+19.0 +15.4 80 +20 +24 тепло 1010.7 1007.0
06 14.08 З 2-4
{10}
20 км 10/1 600 м
[Cu med, cong Cc]
+20.6 +16.1 75 +24 +29 комфорт 1010.6 1007.0
09 14.08 С 3-4
{5}
20 км 10/0
[Ci sp]
+17.5 +16.8 96 +17 +18 по сезону 1011.0 1007.3 +22.0
12 14.08 В 2-3
{4}
20 км 10/0
[Ac trans Ci sp]
+14.7 +14.6 99 +14 +14 по сезону 1011.9 1008.2
15 14.08 ЮВ 2-2
{4}
20 км 10/0
[Ac trans Ci sp]
+14.8 +14.4 97 +14 +14 по сезону 1011.4 1007.6
18 14.08 ЮВ 3-5
{5}
20 км 10/3 600 м
[Sc Ac trans Ci sp]
+14.5 +12.6 88 +14 +14 по сезону 1011.8 1008.1
21 14.08 В 2-3
{6}
20 км 10/0
[Ac trans Ci sp]
+15.3 +13.4 88 +15 +16 по сезону 1012.1 1008.4 +14.0
00 15.08 ЮЗ 2-4
{4}
20 км 10/0
[Ac trans Ci sp]
+18.7 +12.3 66 +20 +25 тепло 1012.8 1009.1
03 15.08 З 3-4
{5}
20 км 10/3 600 м
[Sc Ac trans Ci sp]
+18.6 +15.3 81 +20 +24 тепло 1012.3 1008.6
06 15.08 ЮЗ 3-5
{6}
20 км слаб. ливневой дождь 10/5 600 м
[Cb cap Ac trans]
+17.2 +14.4 84 +17 +18 по сезону 1012.7 1009.0
09 15.08 СЗ 1-2
{5}
10 км слаб. ливневой дождь 10/10 300 м
[Cb cap]
+15.5 +15.1 97 +16 +16 по сезону 1013.1 1009.4 +20.3 0.1
12 15.08 СВ 2-3
{3}
10 км слаб. ливневой дождь 10/10 600 м
[Cb cap]
+14.9 +14.8 99 +15 +15 по сезону 1012.9 1009.2
15 15.08 ЮВ 4-7
{8}
20 км {ливн. осадки} 10/10 600 м
[Cb cap]
+15.5 +13.1 86 +15 +15 по сезону 1011.8 1008.1
18 15.08 В 2-2
{9}
20 км {ливн. осадки} 10/10 600 м
[Cb cap]
+15.4 +12.8 84 +15 +15 по сезону 1011.6 1007.9
21 15.08 В 2-3
{5}
20 км слаб. ливневой дождь 10/8 600 м
[Cb cap Ac As]
+14.6 +14.2 97 +14 +14 по сезону 1012.7 1008.9 +14.1 1
00 16.08 В 1-3
{4}
20 км слаб. ливневой дождь 10/1 600 м
[Cb cap As op]
+16.5 +12.8 79 +17 +19 по сезону 1012.5 1008.8
03 16.08 В 2-3
{5}
20 км 10/1 600 м
[Cb cap As op]
+18.0 +13.8 76 +19 +21 тепло 1012.2 1008.5
06 16.08 СЗ 1-2
{6}
20 км слаб. ливневой дождь 10/3 600 м
[Cb cap As op]
+18.7 +16.1 85 +21 +22 комфорт 1011.3 1007.6
09 16.08 В 2-4
{4}
20 км {ливн. осадки} 10/3 600 м
[Cb cap As op]
+17.5 +14.2 81 +18 +18 тепло 1011.3 1007.6 +19.2 0.1
12 16.08 В 2-5
{8}
20 км слаб. ливневой дождь 10/10 600 м
[Cb cap]
+14.7 +11.9 83 +14 +14 по сезону 1011.7 1008.0
15 16.08 В 2-4
{5}
20 км {ливн. осадки} 10/10 600 м
[Cb cap]
+13.7 +10.9 83 +13 +13 по сезону 1010.8 1007.0
18 16.08 СВ 2-4
{6}
20 км {ливн. осадки} 10/10 600 м
[Cb cap]
+12.9 +9.5 80 +12 +12 по сезону 1009.1 1005.4
21 16.08 СВ 3-6
{6}
20 км 10/3 600 м
[Cb cap Ac As]
+12.9 +8.3 74 +12 +12 прохладно 1008.8 1005.1 +12.1 0.0
00 17.08 СВ 5-7
{9}
20 км 10/6 600 м
[Cb cap Ac trans]
+15.8 +9.9 68 +15 +16 прохладно 1008.1 1004.4
03 17.08 СВ 4-8
{10}
20 км 10/5 600 м
[Sc Ac trans]
+18.2 +6.9 48 +18 +20 по сезону 1007.8 1004.1
06 17.08 СВ 5-10
{10}
20 км 10/8 600 м
[Cb cap Ac trans]
+17.4 +7.9 54 +17 +17 по сезону 1006.6 1002.9
09 17.08 С 3-6
{10}
20 км 9/4 600 м
[Cb cap Ac trans]
+14.0 +8.6 70 +13 +13 прохладно 1007.6 1003.9 +18.9
12 17.08 В 3-4
{7}
20 км 10/4 600 м
[Cb cap Ac trans]
+11.8 +8.5 80 +10 +10 холодно 1009.4 1005.6
15 17.08 В 2-5
{6}
20 км 10/3 600 м
[Cb cap Ac trans]
+11.6 +7.9 78 +11 +11 прохладно 1008.7 1004.9
18 17.08 В 2-3
{5}
20 км 10/10 600 м
[Cb cap]
+11.8 +8.4 80 +11 +11 прохладно 1009.6 1005.9
21 17.08 В 2-3
{4}
20 км 10/10 600 м
[Cb cap]
+12.4 +9.4 82 +11 +11 прохладно 1010.5 1006.8 +10.8
00 18.08 ЮВ 2-4
{5}
20 км 10/6 600 м
[Sc Ac As]
+16.2 +10.5 69 +16 +17 по сезону 1011.1 1007.4
03 18.08 З 2-4
{4}
20 км 9/8 600 м
[Cb cap Ac As Ci sp]
+17.8 +11.5 67 +18 +20 по сезону 1011.8 1008.1
06 18.08 СЗ 1-2
{4}
20 км 9/8 600 м
[Sc Ac trans]
+17.5 +11.9 70 +19 +20 по сезону 1011.5 1007.8
09 18.08 штиль 0
{3}
20 км 9/8
[Cb cap Ac trans]
+16.6 +12.2 75 +17 +17 по сезону 1012.0 1008.2 +18.6
12 18.08 ЮВ 2-2
{4}
20 км 10/4 600 м
[Cb cap Ac trans]
+14.6 +13.5 93 +14 +14 по сезону 1013.3 1009.5

 

Местоположение метеостанции Александровск-Сахалинский (Сахалинская область, Россия): широта 50.90 долгота 142.10 высота над уровнем моря 31 м.

В архиве по умолчанию представлена погода в Александровске-Сахалинском за последнюю неделю. Архивные данные за месяц целиком и за предыдущие месяцы, начиная с января 2011 года, Вы можете получить, выбрав интересующий диапазон дат из раскрывающегося списка и нажав кнопку "Ввод!".


*Определитесь, кто Вы:
робот инопланетянин человек

Внимание! Время в таблицах - всемирное. Для получения местного времени необходимо прибавить поправку, которая равна 11 ч.

Смотрите также архив погоды в соседних городах и на ближайших метеорологических станциях:

Погода в Тымовском (Сахалинская область, Россия) (46 км)
Погода в Оноре (Сахалинская область, Россия) (80 км)
Погода в Ныше (Сахалинская область, Россия) (82 км)
Погода в Пильво (Сахалинская область, Россия) (95 км)
Погода в Комрво (Сахалинская область, Россия) (101 км)
Погода в Пограничном (Сахалинская область, Россия) (126 км)
Погода в Первомайском (Сахалинская область, Россия) (130 км)
Погода в Ногликах (Сахалинская область, Россия) (133 км)
Погода в Погибях (Сахалинская область, Россия) (151 км)
Погода в Мариинском (Хабаровский край, Россия) (167 км)

Пояснения к столбцам:

Ветер - указаны скорость ветра в м/с - средняя за 10 мин, порывы в срок и между сроками (в фигурных скобках) и направление, откуда дует ветер: С - северный, СВ - северо-восточный, В - восточный, ЮВ - юго-восточный, Ю - южный, ЮЗ - юго-западный, З - западный, СЗ - северо-западный.
Видимость - горизонтальная дальность видимости в метрах или километрах. При видимости от 1 до 10 км при отсутствии осадков обычно наблюдается дымка, при ухудшении видимости до 1 км и менее - туман. В сухую погоду видимость может ухудшаться дымом, пылью или мглою.
Явления - указаны атмосферные явления, наблюдавшиеся в срок или в последний час перед сроком; фигурными скобками обозначены явления, наблюдавшиеся между сроками (за 1-3 часа до срока); квадратными скобками обозначены град или гололедные отложения с указанием их диаметра в мм.
Облачность - указаны через наклонную черту общая и нижняя облачность в баллах и высота нижней границы облаков в метрах; квадратными скобками обозначены формы облаков: Ci - перистые, Cs - перисто-слоистые, Cc - перисто-кучевые, Ac - высококучевые, As - высокослоистые, Sc - слоисто-кучевые, Ns - слоисто-дождевые, Cu - кучевые, Cb - кучево-дождевые. Подробнее классификацию облаков см. в Атласе облаков (PDF).
T - Температура воздуха - температура, измеренная на высоте 2 м над землей.
Td - Температура точки росы - температура, при понижении до которой содержащийся в воздухе водяной пар достигнет насыщения.
f - Относительная влажность воздуха - влажноcть воздуха, измеренная на высоте 2 м над землей.
Te - Эффективная температура - температура, которую ощущает одетый по сезону человек в тени. Характеристика душности погоды. При расчете учитывается влияние влажности воздуха и скорости ветра на теплоощущения человека.
Tes - Эффективная температура на солнце - температура, которую ощущает человек, с поправкой на солнечный нагрев. Характеристика знойности погоды. Зависит от высоты солнца над горизонтом, облачности и скорости ветра. Ночью, в пасмурную погоду, а также при ветре 12 м/с и более поправка равна нулю.
P - Атмосферное давление - приведенное к уровню моря атмосферное давление.
Po - Атмосферное давление - измеренное на уровне метеостанции атмосферное давление.
Tmin - Минимальная температура - минимум температуры воздуха на высоте 2 м над землей.
Tmax - Максимальная температура - максимум температуры воздуха на высоте 2 м над землей.
R - Количество осадков - Количество выпавших осадков за период времени, мм. При наведении курсора мыши на число - период времени, за который выпало указанное количество осадков.
R24 - Количество осадков - Количество выпавших осадков за 24 часа, мм.
S - Снежный покров - Высота снежного покрова, см. При наведении курсора мыши на число - состояние снежного покрова и степень покрытия местности в баллах.